Location: Newark
(30.1000°N, 109.4667°E)
Time: 14:40:00
(UTC+00:00)

Courier 1B Rocket - Pass Details

Date: 21 February 2020
Orbit: 920 x 1202 km, 28.2° (Epoch: 06 April)

Event Time Altitude Azimuth Distance (km) Brightness Sun altitude
Exits shadow 21:56:37 26° 253° (WSW) 1,943 6.0 -18.0°
Maximum altitude 22:00:04 43° 200° (SSW) 1,473 5.8 -17.2°
Drops below altitude 10° 22:06:57 10° 131° (SE) 3,002 8.3 -15.7°
Sets 22:09:58 0° 125° (SE) 3,998 9.2 -15.1°
